User: anonymous   Login
Location: Three Oaks Observatory
(31.1535°N, 83.5955°W)
Time: 18:09:31
(UTC-04:00)
Language:

XW-2B - Orbit

View from above orbital plane
View from above orbital plane
View from above satellite
View from above satellite

Ground track
Ground track

The orbit data is extracted from the following two-line orbital elements,

1 40911U 15049N   19077.46524363  .00000709  00000-0  40693-4 0  9993
2 40911  97.4679  81.3886 0015001 150.7421   9.8023 15.15656179192932
Epoch (UTC): 18 March 2019 11:09:57
Eccentricity: 0.0015001
inclination: 97.4679°
perigee height: 508 km
apogee height: 529 km
right ascension of ascending node: 81.3886°
argument of perigee: 150.7421°
revolutions per day: 15.15656179
mean anomaly at epoch: 9.8023°
orbit number at epoch: 19293

The dashed part of the orbit path shows where the satellite is in the earth's shadow,  

DLR